Regional Weather Roundup
Issued by NWS

Home | Current Version | Previous Version | Graphics & Text | Print | Product List | Glossary On
Versions: 1 2 3 4 5 6 7 8 9 10 11 12 13 14 15 16 17 18 19 20 21 22 23 24 25 26 27 28 29 30 31 32 33 34 35 36 37 38 39 40 41 42 43 44 45 46 47 48 49 50
107
ASUS44 KJAN 190303
RWRMS

MISSISSIPPI HOURLY WEATHER ROUNDUP
NATIONAL WEATHER SERVICE JACKSON MS
1000 PM CDT SAT APR 18 2015

NOTE: "FAIR: INDICATES FEW OR NO CLOUDS BELOW 12,000 FEET WITH NO
SIGNIFICANT WEATHER AND/OR OBSTRUCTIONS TO VISIBILITY.

MSZ001>002-007>008-010>013-018>021-025>028-034>036-190400-
NORTHWEST MISSISSIPPI

CITY           SKY/WX    TMP DP  RH WIND       PRES   REMARKS
CLARKSDALE       N/A     64  64 100 E6        29.82F
CLEVELAND      CLOUDY    66  66 100 E14       29.78F
GREENWOOD      CLOUDY    67  63  87 CALM      29.82F
GREENVILLE     CLOUDY    68  65  90 SE13      29.78F
OLIVE BRANCH   CLOUDY    64  64 100 CALM      29.86S
OXFORD         MOCLDY    63  63 100 SE6       29.86F
TUNICA         DRIZZLE   64  63  94 E7        29.83F
$$

MSZ003>006-009-014>017-022>024-029>033-037>039-190400-
NORTHEAST MISSISSIPPI

CITY           SKY/WX    TMP DP  RH WIND       PRES   REMARKS
COLUMBUS AFB   CLOUDY    65  65  99 SE3       29.86F
CORINTH        DRIZZLE   68  63  83 SE5       29.86F
GOLDN TRIANGLE CLOUDY    66  63  88 SE6       29.86S
STARKVILLE     DRIZZLE   64  63  94 E3        29.85F
TUPELO         CLOUDY    66  63  90 CALM      29.86F
$$

MSZ040-058-190400-
CENTRAL MISSISSIPPI

CITY           SKY/WX    TMP DP  RH WIND       PRES   REMARKS
JACKSON INTL   TSTM      68  66  93 E7        29.80F
JACKSON HAWKNS HVY RAIN  68  66  93 E5        29.80F FOG
MERIDIAN KEY   CLOUDY    67  66  97 E9        29.83F
MERIDIAN NAS   LGT RAIN  67  65  93 SE3       29.87R FOG
VICKSBURG      LGT RAIN  68  66  93 SE5       29.80F
$$

MSZ059>079-190400-
SOUTH MISSISSIPPI

CITY           SKY/WX    TMP DP  RH WIND       PRES   REMARKS
BROOKHAVEN       N/A     70  70 100 S7        29.82F
HATTIESBURG    CLOUDY    72  69  90 S10       29.84F
MCCOMB         CLOUDY    71  69  93 S9        29.81F
NATCHEZ        CLOUDY    66  64  94 NE6       29.80F
PINE BELT      CLOUDY    70  66  88 S9        29.84F
$$

MSZ080>082-190400-
COASTAL MISSISSIPPI

CITY           SKY/WX    TMP DP  RH WIND       PRES   REMARKS
BILOXI         LGT RAIN  72  72 100 SW14      29.87F
PASCAGOULA     CLOUDY    71  69  93 S3        29.90R
GULFPORT       LGT RAIN  71  68  90 S7        29.87F
$$



USA.gov is the U.S. government's official web portal to all federal, state and local government web resources and services.